• In Hungary
  • List of Countries
  • For 7 days
  • Water Temperature
  • Satellite Maps
  • Weather Map
  • News
  • Weather Widgets
  • user-avatar
    Login

    Hourly Weather San German

    Today, 21 June, Thursday

    Time Temperature Precipitation Wind Pressure Humidity
    00:00 +27°C° 0 mm 4 mps 752 mmHg 83%
    01:00 +27°C° 0 mm 4 mps 752 mmHg 84%
    02:00 +26°C° 0 mm 3 mps 752 mmHg 85%
    03:00 +26°C° 0 mm 4 mps 752 mmHg 86%
    04:00 +26°C° 0 mm 4 mps 752 mmHg 86%
    05:00 +26°C° 0 mm 4 mps 752 mmHg 87%
    06:00 +27°C° 0 mm 4 mps 752 mmHg 82%
    07:00 +27°C° 0 mm 4 mps 752 mmHg 78%
    08:00 +28°C° 0 mm 4 mps 752 mmHg 73%
    09:00 +30°C° 0 mm 4 mps 753 mmHg 68%
    10:00 +32°C° 0 mm 4 mps 753 mmHg 62%
    11:00 +33°C° 0 mm 5 mps 753 mmHg 56%
    12:00 +33°C° 0 mm 5 mps 753 mmHg 57%
    13:00 +33°C° 0 mm 5 mps 753 mmHg 57%
    14:00 +33°C° 0 mm 5 mps 753 mmHg 58%
    15:00 +33°C° 0.3 mm 5 mps 753 mmHg 60%
    16:00 +32°C° 0.3 mm 5 mps 752 mmHg 63%
    17:00 +32°C° 0.3 mm 5 mps 752 mmHg 65%
    18:00 +30°C° 0.2 mm 4 mps 752 mmHg 69%
    19:00 +29°C° 0.2 mm 4 mps 752 mmHg 74%
    20:00 +28°C° 0.2 mm 4 mps 752 mmHg 78%
    21:00 +27°C° 0 mm 4 mps 752 mmHg 78%
    22:00 +27°C° 0 mm 4 mps 753 mmHg 79%
    23:00 +27°C° 0 mm 5 mps 753 mmHg 80%

    Tomorrow, 22 June, Friday

    Time Temperature Precipitation Wind Pressure Humidity
    00:00 +27°C° 0 mm 5 mps 753 mmHg 80%
    01:00 +26°C° 0 mm 5 mps 752 mmHg 81%
    02:00 +26°C° 0 mm 5 mps 752 mmHg 81%
    03:00 +26°C° 0 mm 5 mps 752 mmHg 82%
    04:00 +26°C° 0 mm 4 mps 752 mmHg 82%
    05:00 +26°C° 0 mm 4 mps 751 mmHg 82%
    06:00 +27°C° 0 mm 5 mps 752 mmHg 79%
    07:00 +27°C° 0 mm 5 mps 752 mmHg 76%
    08:00 +28°C° 0 mm 5 mps 753 mmHg 74%
    09:00 +30°C° 0 mm 5 mps 753 mmHg 68%
    10:00 +32°C° 0 mm 5 mps 753 mmHg 63%
    11:00 +33°C° 0 mm 5 mps 753 mmHg 58%
    12:00 +33°C° 0.1 mm 6 mps 753 mmHg 59%
    13:00 +33°C° 0.1 mm 6 mps 753 mmHg 61%
    14:00 +33°C° 0.1 mm 7 mps 753 mmHg 63%
    15:00 +32°C° 0.3 mm 7 mps 752 mmHg 64%
    16:00 +32°C° 0.3 mm 7 mps 752 mmHg 66%
    17:00 +30°C° 0.3 mm 7 mps 752 mmHg 68%
    18:00 +30°C° 0.3 mm 7 mps 752 mmHg 72%
    19:00 +29°C° 0.3 mm 6 mps 752 mmHg 75%
    20:00 +28°C° 0.3 mm 6 mps 752 mmHg 78%
    21:00 +28°C° 0 mm 6 mps 752 mmHg 79%
    22:00 +27°C° 0 mm 5 mps 753 mmHg 80%
    23:00 +27°C° 0 mm 5 mps 753 mmHg 81%

    Day after tomorrow, 23 June, Saturday

    Time Temperature Precipitation Wind Pressure Humidity
    00:00 +27°C° 0.1 mm 5 mps 753 mmHg 81%
    01:00 +27°C° 0.1 mm 5 mps 752 mmHg 82%
    02:00 +27°C° 0.1 mm 4 mps 752 mmHg 83%
    03:00 +27°C° 0.9 mm 5 mps 752 mmHg 83%
    04:00 +27°C° 0.9 mm 5 mps 751 mmHg 83%
    05:00 +27°C° 0.9 mm 5 mps 751 mmHg 84%
    06:00 +27°C° 1.5 mm 6 mps 752 mmHg 82%
    07:00 +27°C° 1.5 mm 6 mps 752 mmHg 80%
    08:00 +28°C° 1.5 mm 6 mps 752 mmHg 78%
    09:00 +28°C° 1.3 mm 6 mps 753 mmHg 76%
    10:00 +29°C° 1.3 mm 7 mps 753 mmHg 75%
    11:00 +29°C° 1.3 mm 7 mps 754 mmHg 74%
    12:00 +29°C° 0.5 mm 6 mps 753 mmHg 73%
    13:00 +29°C° 0.5 mm 6 mps 753 mmHg 72%
    14:00 +29°C° 0.5 mm 5 mps 753 mmHg 72%
    15:00 +29°C° 0.2 mm 5 mps 753 mmHg 73%
    16:00 +29°C° 0.2 mm 5 mps 752 mmHg 73%
    17:00 +28°C° 0.2 mm 4 mps 752 mmHg 74%
    18:00 +28°C° 0 mm 4 mps 752 mmHg 76%
    19:00 +27°C° 0 mm 4 mps 752 mmHg 79%
    20:00 +27°C° 0 mm 5 mps 753 mmHg 81%
    21:00 +27°C° 0 mm 5 mps 753 mmHg 81%
    22:00 +27°C° 0 mm 5 mps 753 mmHg 81%
    23:00 +27°C° 0 mm 5 mps 753 mmHg 81%

    24 June, Sunday

    Time Temperature Precipitation Wind Pressure Humidity
    00:00 +27°C° 0.1 mm 5 mps 753 mmHg 81%
    01:00 +27°C° 0.1 mm 6 mps 752 mmHg 82%
    02:00 +27°C° 0.1 mm 6 mps 752 mmHg 82%
    03:00 +27°C° 0.4 mm 6 mps 752 mmHg 82%
    04:00 +26°C° 0.4 mm 6 mps 752 mmHg 83%
    05:00 +26°C° 0.4 mm 6 mps 752 mmHg 83%
    06:00 +27°C° 0.2 mm 6 mps 753 mmHg 80%
    07:00 +28°C° 0.2 mm 7 mps 753 mmHg 76%
    08:00 +29°C° 0.2 mm 7 mps 753 mmHg 73%
    09:00 +31°C° 0.1 mm 8 mps 753 mmHg 69%
    10:00 +32°C° 0.1 mm 8 mps 754 mmHg 64%
    11:00 +33°C° 0.1 mm 8 mps 754 mmHg 60%
    12:00 +33°C° 0.4 mm 8 mps 753 mmHg 60%
    13:00 +33°C° 0.4 mm 8 mps 753 mmHg 60%
    14:00 +33°C° 0.4 mm 8 mps 753 mmHg 60%
    15:00 +33°C° 0.6 mm 8 mps 753 mmHg 62%
    16:00 +32°C° 0.6 mm 8 mps 752 mmHg 65%
    17:00 +32°C° 0.6 mm 8 mps 752 mmHg 67%
    18:00 +30°C° 0.2 mm 7 mps 752 mmHg 71%
    19:00 +29°C° 0.2 mm 7 mps 753 mmHg 74%
    20:00 +28°C° 0.2 mm 6 mps 753 mmHg 78%
    21:00 +28°C° 0 mm 6 mps 754 mmHg 79%
    22:00 +27°C° 0 mm 6 mps 754 mmHg 80%
    23:00 +27°C° 0 mm 6 mps 754 mmHg 81%

    25 June, Monday

    Time Temperature Precipitation Wind Pressure Humidity
    00:00 +27°C° 0 mm 6 mps 754 mmHg 81%
    01:00 +27°C° 0 mm 6 mps 753 mmHg 81%
    02:00 +27°C° 0 mm 6 mps 753 mmHg 82%
    03:00 +27°C° 0 mm 6 mps 753 mmHg 82%
    04:00 +27°C° 0 mm 6 mps 753 mmHg 82%
    05:00 +27°C° 0 mm 6 mps 753 mmHg 82%
    06:00 +28°C° 0 mm 6 mps 753 mmHg 78%
    07:00 +28°C° 0 mm 7 mps 753 mmHg 75%
    08:00 +29°C° 0 mm 7 mps 754 mmHg 71%
    09:00 +30°C° 0 mm 7 mps 754 mmHg 67%
    10:00 +32°C° 0 mm 7 mps 754 mmHg 63%
    11:00 +33°C° 0 mm 7 mps 754 mmHg 59%
    12:00 +34°C° 0 mm 8 mps 754 mmHg 58%
    13:00 +34°C° 0 mm 8 mps 753 mmHg 57%
    14:00 +34°C° 0 mm 8 mps 753 mmHg 56%
    15:00 +34°C° 0 mm 8 mps 753 mmHg 58%
    16:00 +33°C° 0 mm 8 mps 753 mmHg 60%
    17:00 +33°C° 0 mm 8 mps 752 mmHg 62%
    18:00 +30°C° 0 mm 7 mps 753 mmHg 66%
    19:00 +29°C° 0 mm 7 mps 753 mmHg 71%
    20:00 +28°C° 0 mm 6 mps 753 mmHg 76%
    21:00 +28°C° 0 mm 6 mps 754 mmHg 77%
    22:00 +27°C° 0 mm 6 mps 754 mmHg 79%
    23:00 +27°C° 0 mm 5 mps 754 mmHg 81%

    26 June, Tuesday

    Time Temperature Precipitation Wind Pressure Humidity
    00:00 +27°C° 0 mm 5 mps 753 mmHg 82%
    01:00 +26°C° 0 mm 5 mps 753 mmHg 83%
    02:00 +26°C° 0 mm 4 mps 752 mmHg 84%
    03:00 +26°C° 0 mm 4 mps 752 mmHg 84%
    04:00 +26°C° 0 mm 4 mps 752 mmHg 85%
    05:00 +26°C° 0 mm 4 mps 752 mmHg 85%
    06:00 +27°C° 0 mm 4 mps 753 mmHg 81%
    07:00 +28°C° 0 mm 5 mps 753 mmHg 77%
    08:00 +29°C° 0 mm 5 mps 753 mmHg 73%
    09:00 +30°C° 0 mm 5 mps 753 mmHg 68%
    10:00 +32°C° 0 mm 5 mps 753 mmHg 64%
    11:00 +33°C° 0 mm 5 mps 753 mmHg 59%
    12:00 +33°C° 0 mm 5 mps 753 mmHg 59%
    13:00 +34°C° 0 mm 6 mps 753 mmHg 59%
    14:00 +34°C° 0 mm 6 mps 752 mmHg 59%
    15:00 +33°C° 0 mm 6 mps 752 mmHg 60%
    16:00 +33°C° 0 mm 6 mps 752 mmHg 62%
    17:00 +32°C° 0 mm 6 mps 752 mmHg 64%
    18:00 +30°C° 0 mm 6 mps 752 mmHg 69%
    19:00 +29°C° 0 mm 5 mps 752 mmHg 73%
    20:00 +28°C° 0 mm 5 mps 752 mmHg 78%
    21:00 +27°C° 0 mm 5 mps 752 mmHg 80%
    22:00 +27°C° 0 mm 5 mps 753 mmHg 82%
    23:00 +26°C° 0 mm 4 mps 753 mmHg 84%
    Show more